GEFSMW_500_meanwind_036.txt.gz
Wind_Speed
56 61 66 71 75 78 80 84 86 88 88 86 81 76 73 72 71 70 68 65 62 59 57 55 53 53 54 56 58 60 62 64 66 68 72 77 84 89 93 94 93 90 87
60 65 69 74 77 79 82 85 87 87 86 82 77 75 73 72 70 67 63 60 57 53 51 50 49 49 50 51 54 58 60 63 65 66 67 71 76 84 90 94 95 94 91
63 68 72 75 78 80 83 85 86 85 82 78 75 74 72 69 65 60 56 53 50 48 46 45 44 44 45 47 49 53 57 60 63 65 66 67 70 76 83 91 95 96 95
66 70 73 76 78 80 83 85 85 82 78 76 75 74 71 66 61 56 52 49 48 46 45 43 42 42 42 42 44 48 52 57 61 64 66 66 66 69 74 84 92 96 97
67 71 73 75 78 81 83 83 81 78 76 76 75 73 69 63 57 52 49 47 47 47 45 44 42 41 41 41 41 43 47 52 57 62 66 67 66 66 68 74 86 93 97
68 71 73 75 78 81 82 81 78 76 75 75 73 71 65 59 54 50 48 48 47 48 47 46 45 44 42 41 41 41 43 47 53 58 64 67 68 67 65 66 74 87 94
68 71 73 75 78 80 80 78 76 74 74 73 71 67 62 57 53 51 51 51 51 51 51 50 48 47 45 43 41 40 41 43 48 53 60 65 68 68 66 65 65 75 88
69 71 73 76 78 79 78 76 73 73 73 71 68 64 61 57 55 55 56 56 56 55 54 53 52 50 47 44 42 40 40 41 44 49 55 61 67 68 67 66 64 66 76
69 71 73 76 78 78 76 74 72 72 71 70 66 63 60 58 57 58 60 61 61 59 58 56 53 51 48 45 43 41 39 39 41 45 50 56 63 67 68 66 64 64 67
69 71 73 76 77 76 74 72 71 71 70 68 65 63 60 59 60 62 64 64 64 64 61 57 53 49 46 43 41 40 38 37 37 40 46 51 57 64 68 67 65 63 64
69 71 73 76 76 74 72 69 69 69 68 66 64 62 61 62 64 66 68 68 69 67 61 55 49 45 43 41 38 37 35 34 34 36 41 47 52 59 65 67 65 64 62
69 71 73 74 74 71 69 68 68 68 67 65 64 63 63 65 67 68 70 72 71 65 56 47 39 33 32 34 35 34 32 30 30 32 36 42 47 53 60 64 65 63 62
68 70 72 73 71 69 67 66 67 66 66 65 64 64 65 66 68 70 73 74 68 60 49 38 28 19 15 18 24 27 28 27 27 28 32 37 42 47 54 60 63 61 61
68 69 71 71 70 67 66 65 65 65 65 65 64 65 65 67 70 73 75 73 66 55 42 32 23 15 7 5 11 17 22 23 23 25 28 33 38 42 48 54 59 59 58
67 68 69 70 68 66 64 64 64 64 64 64 64 65 66 69 71 74 75 71 63 51 39 29 22 16 10 4 4 9 15 18 20 22 25 29 33 37 42 48 53 55 55
65 67 68 68 66 64 62 62 63 63 63 63 64 65 67 69 71 74 75 71 62 50 36 26 20 16 12 7 2 5 9 13 16 19 23 26 30 33 37 42 47 49 50
64 65 67 67 65 62 61 61 62 62 62 62 63 65 67 69 71 73 74 71 63 52 38 26 19 14 9 5 2 2 5 8 13 17 21 25 28 30 34 37 41 44 46
63 64 66 65 63 61 60 60 60 60 60 61 62 64 66 68 70 72 73 72 65 55 44 32 23 16 11 7 5 2 2 6 11 15 20 24 27 29 32 34 37 39 41
62 63 64 64 62 60 58 58 58 58 59 60 61 63 65 66 68 70 71 71 67 59 50 39 29 22 16 11 8 5 2 5 9 14 19 23 27 29 31 33 34 35 36
61 62 63 63 61 59 57 56 56 56 57 58 60 61 63 65 67 69 70 70 69 64 56 47 36 27 20 15 11 7 3 3 8 13 18 23 27 29 31 32 32 32 33
60 61 62 61 60 57 55 55 55 55 55 57 58 60 61 63 66 68 69 69 68 66 61 53 45 35 26 19 14 10 5 2 6 12 17 22 26 29 30 31 31 30 30
59 60 61 60 58 56 54 53 53 53 54 55 56 58 59 61 63 65 66 66 66 65 63 58 52 44 34 25 18 13 8 3 4 9 15 21 26 29 30 30 30 30 28
59 59 59 59 58 55 53 52 51 52 52 53 54 55 57 59 60 62 63 64 64 63 62 60 56 50 44 35 25 18 11 6 1 7 14 19 25 28 30 31 30 30 28
58 58 58 58 57 54 52 50 50 50 50 51 51 53 54 56 57 59 60 61 61 62 61 60 59 55 50 43 35 26 18 10 3 4 11 17 23 28 30 31 31 30 29
57 57 57 57 56 54 51 50 49 49 49 49 49 50 52 54 56 57 58 59 60 60 60 60 58 57 54 50 44 36 27 17 9 1 7 14 20 26 30 31 31 31 30
56 56 56 55 55 53 51 49 48 47 48 48 48 49 50 51 53 55 56 57 58 59 59 59 58 57 55 53 49 43 36 27 17 7 3 10 17 23 28 31 32 32 32

GEFSMW_500_meanwind_042.txt.gz
Wind_Speed
47 51 55 58 63 67 71 74 78 81 84 87 89 89 87 84 83 81 80 76 71 67 62 58 55 53 51 50 49 47 47 47 48 51 55 60 68 74 78 83 92 100 104
49 53 57 61 65 69 72 76 79 82 86 89 89 87 84 82 80 78 75 71 67 64 61 58 57 56 55 54 53 51 48 46 47 47 49 53 60 68 74 79 87 95 102
51 55 59 63 66 70 73 76 79 83 87 88 87 84 81 79 77 75 71 67 65 63 62 62 61 61 61 60 59 56 53 49 47 47 46 48 53 60 69 75 81 88 96
53 57 60 64 67 71 74 77 80 84 87 86 84 82 79 78 76 73 69 66 64 64 65 67 68 68 67 65 63 60 57 53 49 47 46 45 48 55 61 70 76 82 89
54 58 61 65 68 71 74 78 81 84 85 84 82 79 78 77 75 71 68 66 66 68 70 72 72 70 67 65 63 60 57 54 51 48 46 45 45 48 56 63 71 76 82
55 58 62 66 69 71 75 78 81 83 83 82 79 78 76 75 73 70 68 67 69 71 74 72 68 64 61 59 57 56 54 52 49 48 46 44 44 45 50 57 65 71 76
56 59 63 66 69 72 75 78 80 81 81 79 77 76 75 75 73 71 71 71 73 74 72 67 62 57 52 49 48 48 49 48 46 46 45 44 43 43 47 52 60 67 72
56 60 63 66 69 71 74 77 80 80 79 77 75 74 74 74 72 72 73 75 76 75 70 64 58 51 45 39 35 36 38 40 41 42 42 42 41 41 44 49 56 63 69
56 60 63 66 69 71 74 77 78 78 77 75 73 72 73 73 72 73 74 76 76 73 68 61 55 48 40 32 24 22 26 30 33 36 38 39 39 39 41 45 52 60 66
57 60 64 66 68 71 74 76 77 77 75 73 71 71 72 72 72 73 74 75 75 71 64 58 52 45 39 31 20 10 13 19 25 29 32 34 36 37 38 42 48 55 63
57 61 64 66 68 70 73 75 76 75 73 71 70 70 70 71 72 72 74 74 73 69 63 56 50 44 39 32 22 11 2 10 16 22 26 29 31 33 35 39 44 51 59
58 61 64 66 67 70 72 74 74 73 71 69 68 68 69 70 71 71 72 73 71 67 62 55 47 41 36 31 24 15 6 2 10 15 20 23 26 29 32 36 41 48 55
58 61 63 65 67 69 71 72 72 71 69 67 66 67 67 68 69 70 71 72 70 66 61 53 46 39 34 28 23 16 9 3 5 10 15 19 22 25 28 32 37 44 52
58 61 63 65 67 68 70 71 70 69 67 66 65 65 66 67 68 69 70 70 70 66 61 54 45 38 32 28 23 17 11 5 3 7 12 16 19 21 24 28 34 40 48
58 61 63 64 66 67 69 69 69 67 66 64 64 64 64 65 67 68 69 69 69 67 63 56 47 39 32 27 22 17 12 7 4 6 9 13 16 18 21 25 30 37 45
58 61 62 64 65 66 68 68 67 66 64 63 63 62 62 63 65 66 67 68 67 67 64 59 52 43 34 27 22 17 13 8 4 4 7 10 13 15 18 22 27 34 41
59 61 62 63 64 65 66 66 66 64 63 62 61 61 61 62 63 64 65 66 66 66 65 61 55 48 39 31 24 19 15 10 6 3 5 8 11 13 16 20 25 31 38
59 60 61 62 63 64 65 65 65 64 62 61 60 60 60 61 62 63 63 64 65 65 64 62 58 52 45 37 29 23 18 13 8 4 3 5 8 11 14 18 23 28 35
58 60 61 62 62 63 64 64 64 63 61 60 59 59 59 60 60 61 62 63 63 64 64 62 60 55 50 43 35 27 21 16 11 5 1 3 7 10 13 17 21 26 32
58 60 61 61 62 62 63 63 63 62 61 59 58 58 58 59 59 60 60 61 62 62 63 62 61 58 53 48 41 32 24 18 13 8 3 3 6 10 13 16 20 24 29
58 60 61 61 61 61 62 62 62 61 60 58 57 57 57 58 58 59 59 59 60 61 61 61 61 59 56 51 45 38 29 21 14 9 5 3 5 9 12 16 19 23 28
58 59 60 60 60 60 61 61 61 61 59 58 57 56 56 57 57 57 57 57 57 58 58 58 58 58 57 54 49 43 35 26 18 11 6 3 5 9 12 15 19 23 26
58 59 60 60 59 59 60 60 61 60 58 57 56 56 56 56 56 56 55 55 55 55 55 56 56 56 55 54 51 46 40 32 23 14 8 4 5 8 12 15 19 22 25
58 58 59 59 59 59 59 59 60 59 57 56 55 55 55 55 56 55 54 53 53 53 53 54 54 54 53 53 52 49 44 37 29 19 11 6 4 8 12 15 18 21 23
58 58 58 58 58 58 58 58 59 58 57 55 54 54 54 54 54 55 54 53 52 53 52 52 52 52 51 52 52 50 46 41 34 26 16 8 4 6 11 15 17 20 22
58 57 57 58 57 57 57 57 57 57 56 54 53 52 52 52 53 53 54 54 52 51 51 50 50 50 50 50 49 48 47 43 38 31 22 13 5 4 9 13 16 19 21

GEFSMW_500_meanwind_048.txt.gz
Wind_Speed
38 41 43 46 48 51 55 59 63 67 70 74 77 81 85 88 89 88 85 82 79 78 77 76 75 76 76 76 74 72 70 69 70 68 66 63 62 62 63 66 73 83 93
39 42 44 47 50 53 57 61 65 68 71 74 78 82 85 87 87 84 81 79 77 76 75 74 75 76 75 72 69 66 64 62 62 64 65 64 62 64 62 62 67 75 85
40 43 46 49 51 55 59 63 66 69 72 75 79 82 85 86 84 81 78 76 75 75 74 74 75 74 73 69 65 61 57 54 52 55 59 62 63 62 61 62 63 67 75
41 44 47 50 53 56 60 64 67 70 72 76 79 82 84 83 81 78 76 74 74 73 73 73 74 72 70 66 62 56 51 45 42 44 49 55 60 61 60 60 60 61 66
43 46 49 51 54 57 61 65 68 70 73 76 79 81 82 81 79 76 74 73 72 72 72 72 72 70 67 62 58 52 45 37 31 31 38 45 53 57 57 58 58 58 60
44 47 49 52 55 58 62 66 68 70 73 76 79 81 81 79 76 73 72 71 71 71 71 71 69 67 63 58 53 47 40 32 24 20 25 34 43 50 54 55 55 55 56
45 47 50 53 56 59 63 66 68 70 73 76 78 79 79 77 74 72 70 70 69 69 69 69 67 64 60 53 49 43 37 30 21 13 15 24 33 42 48 51 52 52 52
45 48 51 54 57 60 63 66 68 70 72 75 77 78 77 75 73 71 69 69 69 68 68 68 66 62 57 49 44 39 34 28 20 11 8 16 25 34 41 45 48 49 49
47 49 52 54 57 60 64 66 68 69 72 74 76 77 76 74 71 69 68 68 68 67 67 66 64 61 55 47 39 34 30 25 18 12 6 10 18 27 34 39 43 45 46
49 51 53 56 58 61 64 66 67 69 71 73 75 75 74 72 70 68 67 67 66 66 66 65 63 59 54 46 37 31 27 22 17 12 7 7 13 21 28 34 38 41 43
52 54 55 57 59 61 64 66 67 69 71 73 74 74 73 70 69 67 66 65 65 65 65 64 63 59 54 46 37 30 26 21 16 12 8 7 10 17 23 29 33 37 40
55 56 57 58 59 62 64 66 67 68 70 72 73 73 71 69 68 66 65 64 64 64 64 63 62 60 54 47 39 31 25 21 16 12 8 7 10 14 19 24 29 33 36
58 59 59 60 60 62 64 66 67 68 69 71 72 71 70 68 67 65 63 63 63 63 63 62 61 60 56 50 42 34 27 21 17 13 9 8 10 13 17 21 25 29 33
60 61 61 62 62 63 64 66 66 67 69 70 71 70 69 67 66 64 63 62 62 62 61 62 61 60 57 52 45 37 30 23 18 14 10 8 9 12 15 19 22 26 29
61 63 64 64 63 64 65 66 66 67 68 69 70 70 68 67 65 63 62 61 61 61 60 60 60 59 57 54 48 41 33 26 20 15 10 7 7 10 13 16 19 22 26
62 64 66 66 65 64 65 66 66 66 67 68 69 69 67 66 64 63 61 60 59 59 59 59 59 58 56 53 50 44 36 28 21 15 10 6 5 7 10 13 16 19 23
62 64 66 68 67 66 66 66 66 66 67 68 68 68 67 65 64 62 60 59 58 58 58 57 57 57 56 53 50 45 38 30 23 17 11 7 4 5 8 11 14 17 20
62 64 66 68 68 67 66 66 66 66 66 67 68 67 66 65 63 61 60 59 58 57 56 56 56 56 55 54 51 47 41 33 26 19 13 9 5 3 5 9 12 15 19
61 64 66 68 69 68 67 66 66 65 66 66 67 67 65 64 62 60 59 58 57 56 55 55 54 55 55 53 51 47 42 35 29 22 16 11 7 2 2 6 10 13 17
61 63 66 68 69 69 67 66 66 65 65 66 66 67 65 63 61 60 58 57 56 56 55 54 53 53 53 52 51 48 44 37 31 24 19 14 10 5 2 4 7 11 16
60 63 65 67 68 69 68 66 66 65 64 65 66 66 65 62 61 59 57 56 55 55 54 53 52 51 51 51 50 48 44 39 32 26 20 15 12 8 4 4 5 9 14
59 62 64 66 67 69 68 67 66 64 64 64 65 65 65 62 60 58 56 55 54 53 52 51 50 49 49 49 49 47 44 39 34 28 21 16 13 9 7 5 5 8 13
58 61 63 65 66 68 68 67 66 64 63 63 64 64 64 63 60 57 55 54 53 52 51 49 48 48 47 47 46 46 44 40 35 29 23 17 13 10 8 7 7 8 11
57 59 62 64 65 66 68 67 65 64 63 62 63 63 63 63 60 57 54 53 51 50 49 49 48 47 46 45 45 45 43 41 36 30 25 19 14 11 8 8 7 8 10
55 58 60 62 64 65 66 67 65 64 62 61 61 62 62 62 60 58 54 52 51 49 48 48 47 46 45 44 44 44 43 41 39 33 27 21 16 11 8 7 7 8 10
54 56 59 61 62 64 65 66 65 63 61 60 60 61 61 61 59 56 54 52 50 49 48 47 47 45 44 43 42 41 41 40 39 36 30 23 17 11 8 6 6 8 10

GEFSMW_500_meanwind_054.txt.gz
Wind_Speed
32 35 37 39 41 43 46 48 50 52 55 57 60 64 67 70 73 77 82 86 89 91 88 84 79 76 74 74 73 74 71 70 70 67 62 58 56 56 59 63 68 74 82
33 35 37 40 42 44 46 48 50 53 55 58 61 64 68 71 74 78 83 86 89 88 84 80 76 74 73 72 72 71 70 67 65 64 61 54 44 43 46 52 59 68 76
34 36 38 41 43 45 47 49 51 53 56 59 62 65 68 71 75 79 83 86 87 84 81 77 74 73 72 71 70 69 68 65 60 58 57 52 42 33 32 40 49 60 69
35 38 40 42 44 47 49 51 53 55 57 60 63 66 69 72 75 79 83 85 84 82 78 75 72 72 71 69 68 67 66 63 58 53 48 45 40 32 23 28 39 52 63
37 40 42 44 47 49 52 54 55 57 59 61 64 67 70 72 76 80 82 83 81 79 76 73 71 70 69 68 67 65 63 60 56 50 44 38 34 29 22 20 30 43 55
38 41 44 46 49 52 55 57 59 60 61 63 66 68 70 73 76 79 81 81 79 76 73 71 70 69 68 66 65 64 61 57 52 46 40 36 31 26 20 16 22 34 47
39 42 45 48 51 54 57 59 62 63 64 65 67 69 71 73 76 79 80 80 77 74 71 69 68 67 66 65 64 62 60 56 50 43 37 32 28 24 19 14 16 26 38
40 43 47 50 53 56 59 61 64 65 66 67 69 71 72 73 76 78 79 79 76 72 70 68 67 66 65 63 62 61 59 55 48 41 35 30 26 22 18 14 14 21 31
41 45 48 51 54 57 60 63 65 67 69 69 70 72 72 74 76 78 78 77 74 71 69 67 66 65 64 62 61 60 58 54 47 40 34 28 24 21 17 14 13 18 26
42 46 49 52 55 58 61 64 67 69 70 71 72 73 73 74 75 77 77 75 73 70 68 66 65 64 63 61 60 59 57 53 47 40 34 28 24 20 16 14 13 16 23
44 47 50 53 56 59 62 65 68 70 71 73 73 73 73 74 75 76 76 74 72 69 67 65 65 64 62 60 59 58 56 52 46 40 33 28 23 19 16 14 12 15 20
45 48 51 54 57 60 63 66 68 70 72 73 74 74 74 74 74 75 75 73 71 68 66 65 64 63 62 60 58 57 55 51 46 40 33 27 23 18 16 13 12 14 17
46 49 51 54 57 60 63 66 68 71 72 74 75 75 74 74 74 75 74 72 70 67 65 64 63 62 61 59 58 56 54 51 46 40 33 27 22 18 15 12 11 12 15
48 50 52 55 57 60 63 66 68 71 72 74 75 75 74 74 74 74 74 71 69 66 64 63 62 61 60 59 57 55 53 50 46 41 34 28 23 19 15 12 10 11 14
49 51 53 55 57 60 62 65 68 70 72 74 75 76 75 74 74 74 73 71 68 66 63 62 61 60 59 58 56 54 53 50 46 41 35 29 24 19 16 13 11 10 12
50 52 53 55 57 60 62 65 67 70 72 74 75 76 75 74 73 73 73 70 67 65 62 61 60 59 58 57 56 54 52 49 46 41 35 30 26 21 17 13 11 9 10
51 53 53 55 57 59 61 64 66 69 71 73 74 75 75 74 73 73 72 70 67 64 61 59 59 58 57 56 55 53 51 48 45 40 36 32 27 23 18 14 11 9 9
52 53 54 54 56 59 61 63 65 68 70 72 73 75 75 73 72 72 71 70 67 64 61 58 58 57 56 55 54 52 50 47 44 40 36 32 28 24 19 15 11 9 7
52 53 53 54 56 58 60 62 64 67 69 71 72 74 74 73 72 71 71 69 67 64 61 58 57 56 55 54 52 51 49 46 43 40 36 31 27 23 20 16 12 9 7
52 53 53 53 55 57 59 61 64 66 68 70 71 72 73 73 71 70 70 69 67 64 61 58 56 55 54 53 52 50 49 46 43 40 36 31 27 24 21 17 14 10 7
53 53 54 54 54 56 58 61 63 65 67 69 70 71 72 72 70 69 69 68 66 63 60 57 56 54 53 52 50 49 48 47 43 39 35 31 27 24 21 18 15 12 7
54 54 55 54 55 56 58 60 63 65 66 67 68 69 70 71 69 68 67 67 65 62 59 56 54 53 52 51 49 48 47 46 43 40 35 31 27 24 21 19 16 13 9
55 55 55 55 55 56 58 60 62 64 65 66 67 68 69 69 68 66 66 65 64 62 59 55 53 51 50 49 48 46 45 44 43 41 37 32 27 24 20 18 17 14 11
56 56 56 56 57 58 59 60 62 63 64 65 65 66 67 67 67 65 64 64 63 61 58 55 52 50 49 47 46 44 43 43 42 40 38 34 28 24 21 17 16 14 12
59 58 58 58 58 59 60 61 62 63 63 63 64 64 65 66 65 64 63 63 63 62 59 55 51 48 47 46 46 44 43 42 41 40 38 36 30 24 20 17 14 13 12
62 61 60 60 60 60 61 61 62 62 62 62 62 62 63 63 63 62 61 61 62 61 58 55 50 47 46 45 45 44 42 41 40 40 38 36 32 26 20 16 13 11 10

GEFSMW_500_meanwind_060.txt.gz
Wind_Speed
15 17 19 22 24 27 30 33 35 37 39 41 43 45 48 51 53 55 57 59 61 63 66 70 74 78 82 84 84 82 79 77 75 73 70 67 66 65 64 63 61 58 56
15 18 20 23 25 28 31 34 37 39 41 43 45 47 50 53 55 57 60 61 63 65 68 72 76 79 82 82 81 80 77 74 73 72 71 68 61 58 57 56 54 51 49
17 19 21 24 27 29 32 35 38 41 43 45 47 50 52 55 58 60 62 64 66 68 70 74 77 80 81 80 79 77 75 72 70 70 71 70 66 58 50 48 47 45 43
19 21 23 26 28 30 33 36 39 42 45 47 50 52 54 57 60 62 64 66 68 70 72 75 77 79 79 78 76 75 73 71 68 67 67 67 66 62 53 43 41 40 39
22 24 26 28 31 33 35 38 41 44 47 49 51 54 56 59 61 64 66 68 69 71 73 76 77 78 78 76 74 73 71 70 68 66 64 62 60 58 56 45 37 35 35
26 28 29 31 34 36 38 40 42 45 48 51 53 55 58 60 63 65 67 69 71 72 74 76 77 77 76 74 72 70 69 68 67 65 64 62 58 54 51 45 38 34 30
30 31 33 35 37 39 41 42 44 47 49 52 54 57 59 61 64 66 69 70 72 73 75 76 76 76 74 72 70 68 67 66 65 63 62 60 57 53 48 44 38 33 28
33 34 36 38 40 41 43 45 46 48 50 53 56 58 60 63 65 67 70 71 72 73 75 75 75 74 73 70 68 67 65 64 63 61 60 58 55 51 46 42 38 32 25
35 37 38 40 42 44 45 47 48 50 51 54 56 59 61 64 66 68 71 72 73 74 75 75 74 73 71 69 67 65 64 62 61 59 58 56 52 49 44 41 37 33 25
39 40 41 42 44 46 47 49 50 51 53 55 57 59 61 64 67 69 71 73 74 74 75 75 74 72 70 68 65 63 63 61 59 58 56 54 50 47 43 39 36 33 27
42 43 43 45 46 48 49 51 52 53 54 55 57 60 62 65 68 69 72 73 74 74 74 74 73 71 69 67 64 62 62 59 57 56 55 52 48 45 41 37 34 31 27
44 45 46 47 48 49 51 52 53 54 55 56 58 60 62 65 68 70 72 73 73 73 74 73 72 70 68 66 63 61 60 58 56 54 53 50 46 43 40 36 33 30 26
46 47 48 49 50 51 53 53 54 55 55 56 58 60 63 65 68 70 72 73 73 73 73 72 71 69 67 65 62 59 59 58 55 53 51 48 44 42 39 35 32 28 25
49 50 50 51 52 53 54 55 55 56 56 57 59 61 63 65 68 70 72 73 72 72 72 71 70 68 66 63 61 58 57 56 54 52 50 47 43 40 38 34 31 28 24
50 51 52 53 53 54 55 56 56 57 57 58 59 61 63 66 68 70 72 72 72 71 71 70 69 67 65 62 60 57 56 55 53 51 48 46 42 39 37 34 30 27 24
51 52 54 54 55 56 57 57 57 57 58 59 60 62 64 66 68 70 71 71 70 70 70 69 68 66 64 61 59 57 56 55 53 50 47 45 41 38 36 33 30 27 24
52 54 55 55 56 57 58 58 58 58 59 60 61 62 64 66 68 70 71 70 69 69 68 68 67 65 62 59 57 55 54 54 52 50 47 44 40 37 34 32 29 26 24
53 55 56 57 57 58 58 59 58 59 60 61 62 64 65 67 68 69 69 69 68 67 66 66 65 63 61 58 56 53 53 52 51 49 46 43 40 36 33 31 28 26 23
56 57 58 58 58 59 59 60 60 60 61 62 63 64 65 67 68 68 68 67 67 66 65 65 64 62 60 57 55 52 51 50 50 48 46 44 40 35 31 29 28 25 23
58 59 60 60 60 60 60 60 61 61 62 62 63 64 65 66 67 66 66 66 65 64 63 63 62 60 58 56 54 51 50 48 47 46 45 44 40 35 30 28 26 24 22
61 62 62 62 61 61 61 61 61 62 63 63 63 63 64 64 65 64 64 64 63 62 61 61 61 59 57 55 53 50 49 47 46 45 43 42 40 35 30 26 25 24 22
64 64 64 63 62 62 62 62 62 62 63 63 63 63 63 62 62 62 62 62 60 60 59 59 59 58 56 53 51 49 48 47 45 44 42 41 39 35 30 26 24 23 22
63 63 63 62 62 62 62 62 62 62 62 62 62 62 62 61 60 60 60 59 58 57 57 57 56 55 54 52 49 48 46 46 44 43 42 40 39 36 31 27 23 22 21
60 60 60 60 59 59 59 59 60 60 60 60 60 60 59 59 59 57 57 56 56 55 55 54 54 53 52 50 48 46 45 44 43 42 41 40 39 37 33 28 25 21 20
56 56 56 55 55 56 56 57 58 58 58 58 58 57 57 56 56 54 54 53 53 52 52 52 51 50 49 48 46 44 42 42 41 41 40 39 38 37 34 29 25 22 20
53 53 53 53 53 54 54 54 55 55 55 55 56 56 55 54 53 51 50 50 50 50 50 49 49 48 47 46 44 42 41 41 40 40 39 38 37 36 34 29 24 21 19

GEFSMW_500_meanwind_066.txt.gz
Wind_Speed
19 20 21 22 23 25 26 27 28 29 31 32 34 36 38 40 42 44 45 47 48 49 50 51 53 55 58 61 63 65 67 70 72 74 76 78 81 82 82 83 82 81 81
22 23 24 25 26 28 29 30 31 32 34 35 37 38 40 42 44 46 47 49 50 51 52 54 56 58 60 63 65 67 70 72 75 77 79 80 79 80 79 78 78 77 77
24 25 26 28 29 30 32 33 34 35 37 38 39 41 43 45 47 48 50 51 52 53 54 56 58 60 62 65 67 70 72 74 77 80 82 83 82 81 76 73 72 72 72
26 27 29 30 32 33 34 36 37 38 40 41 42 44 46 47 49 51 52 53 54 56 57 58 60 62 65 67 69 72 74 76 78 80 82 83 84 84 79 71 68 68 67
29 30 31 33 34 36 37 39 40 41 43 44 46 47 49 50 52 53 55 55 56 58 59 60 62 64 67 69 71 73 75 77 78 80 81 81 81 82 80 74 67 63 63
31 32 34 36 38 39 41 42 44 45 46 48 49 50 52 53 54 55 57 57 58 59 61 62 64 66 68 70 72 74 76 78 79 80 80 80 79 78 77 74 69 63 58
34 35 37 39 41 43 44 46 47 48 50 51 51 53 54 55 56 57 58 59 60 61 62 64 66 68 69 71 73 75 76 77 78 79 79 78 77 76 74 73 69 63 56
37 39 41 43 45 46 48 49 50 51 53 53 54 55 56 57 58 59 60 60 62 63 64 66 67 68 70 72 73 75 76 77 77 77 77 75 74 74 72 71 69 64 56
42 44 45 46 48 49 51 52 53 54 55 56 57 57 58 59 59 60 61 63 63 64 66 68 68 69 71 73 74 75 76 76 76 76 75 73 72 71 68 67 67 64 59
45 47 48 50 51 52 53 54 55 56 57 57 58 58 59 60 61 62 63 64 65 66 68 69 69 70 72 73 74 74 75 75 75 75 73 71 70 68 66 64 63 61 59
49 51 52 53 54 54 55 55 56 57 58 59 60 60 61 62 63 63 64 65 66 67 68 69 70 71 72 72 73 73 74 73 73 73 71 69 68 66 63 62 61 58 57
52 53 54 54 55 55 56 56 57 58 59 60 61 61 61 62 63 64 65 66 67 68 69 69 69 70 71 71 72 72 72 72 71 70 69 67 65 64 61 60 59 56 54
53 54 55 55 56 56 56 57 58 59 60 61 61 62 63 64 65 66 66 67 67 68 69 68 69 69 70 70 70 71 70 70 70 68 67 65 63 62 59 58 57 54 52
54 55 55 56 56 57 58 58 58 59 60 62 63 63 64 66 66 66 66 67 67 68 68 67 68 68 69 69 69 69 69 68 68 66 65 63 62 60 58 56 55 52 49
56 57 57 57 57 58 58 59 59 60 62 63 63 65 66 66 66 66 67 67 68 67 66 65 66 67 68 68 67 67 67 66 65 64 62 61 60 58 56 55 54 51 48
58 58 58 58 59 59 60 60 60 61 63 63 64 65 65 65 66 66 67 67 66 65 64 64 65 65 66 66 66 65 64 64 63 61 59 58 57 56 54 53 52 50 48
60 60 59 60 61 61 61 61 62 63 64 64 64 65 65 65 65 65 64 63 63 63 62 63 64 64 64 65 64 63 62 62 61 59 57 56 55 54 52 51 50 48 46
61 60 60 61 61 61 62 62 62 63 63 63 64 64 63 63 62 62 61 61 60 59 60 60 60 61 62 61 61 60 60 60 59 57 56 54 53 52 50 49 48 47 45
62 62 62 61 60 60 60 60 61 61 61 61 61 60 60 60 59 59 58 58 58 57 57 57 58 58 59 59 58 58 58 57 56 55 54 53 51 50 49 48 47 45 42
61 61 60 59 58 58 59 59 59 58 58 58 58 57 57 57 57 57 56 56 55 55 55 55 55 55 56 56 56 56 55 54 53 52 52 51 50 48 47 47 46 43 40
57 57 58 58 58 58 58 57 56 56 56 55 55 55 56 56 56 55 54 54 53 54 53 53 52 53 53 54 53 53 53 52 51 49 49 48 48 47 46 45 45 43 39
54 55 54 54 54 55 55 55 55 55 54 54 53 53 53 53 53 53 52 52 52 53 51 50 50 51 51 51 51 51 52 51 49 47 47 46 46 45 44 44 44 41 38
50 50 50 50 51 53 54 54 53 52 51 51 50 51 51 50 50 50 50 50 50 49 48 47 47 48 49 49 49 49 50 50 48 46 45 45 44 43 43 42 42 40 36
49 49 49 50 51 52 51 51 51 51 51 52 52 52 52 52 52 51 50 50 50 47 45 45 45 46 47 48 47 47 48 48 46 45 44 44 43 42 41 41 41 40 36
48 49 50 50 50 49 50 51 53 53 53 53 53 53 53 53 52 52 51 50 49 47 45 44 44 45 46 46 45 45 46 46 44 43 42 42 42 41 40 40 39 39 36
49 50 50 50 50 51 52 53 54 54 54 55 55 55 54 54 53 52 51 49 48 45 43 43 43 43 43 43 43 43 44 44 43 41 40 40 40 39 38 38 38 37 35

GEFSMW_500_meanwind_072.txt.gz
Wind_Speed
25 25 24 25 26 27 28 29 30 31 32 33 34 35 37 39 41 42 43 45 46 47 49 50 52 53 53 55 56 56 56 57 57 57 57 57 58 60 62 64 66 68 70
27 27 27 28 29 30 31 32 32 34 35 36 38 38 40 42 44 46 47 48 49 51 52 53 54 55 56 57 58 58 59 60 59 59 59 59 59 60 62 65 67 69 71
28 29 29 30 31 32 34 34 35 37 38 40 41 42 44 45 47 49 50 52 53 54 54 55 56 57 58 60 60 60 60 61 60 60 61 61 62 63 63 66 69 71 73
30 31 32 33 34 35 36 37 38 40 41 43 44 46 47 48 50 52 53 55 56 57 57 57 58 59 61 62 62 62 62 62 61 61 61 63 64 65 66 67 70 71 73
32 33 34 35 36 37 38 40 41 43 44 46 47 49 50 52 54 55 56 57 58 58 59 59 60 62 62 63 63 63 63 62 62 62 62 64 66 68 68 68 70 72 74
34 36 37 38 39 40 41 42 44 45 47 48 50 51 53 54 56 56 57 58 59 59 60 61 63 63 63 64 64 64 63 63 62 63 64 66 68 69 70 69 69 71 72
35 37 38 40 41 43 44 45 46 47 49 50 52 53 55 56 57 58 59 60 60 60 62 64 64 64 64 64 65 65 64 63 63 64 66 67 69 70 70 70 70 70 71
36 37 39 41 43 44 45 47 48 49 50 52 53 54 56 57 58 59 60 60 61 62 63 64 65 65 65 65 66 65 65 64 64 65 66 67 69 70 70 71 71 70 70
37 39 40 42 43 45 46 47 49 50 51 52 53 55 56 57 58 59 60 60 61 62 64 64 65 65 65 66 66 65 64 64 64 65 66 67 68 69 70 70 70 71 70
40 41 42 43 45 46 47 49 50 51 52 53 54 55 56 57 58 59 60 61 62 63 64 65 66 66 66 67 67 65 65 64 64 65 66 67 68 68 68 69 70 70 71
42 42 43 44 46 47 48 49 50 51 52 53 54 55 56 57 58 59 61 62 62 63 65 66 66 66 66 67 66 65 65 63 63 64 66 66 67 67 67 68 68 69 69
45 45 45 46 47 48 48 49 50 50 51 52 53 54 55 57 58 59 60 61 62 63 64 64 65 64 64 64 64 63 62 62 62 63 64 64 65 65 66 66 66 67 67
48 48 48 48 49 49 49 49 50 50 51 52 53 54 55 55 56 57 58 59 61 62 62 62 61 61 61 61 60 60 60 60 61 61 62 63 63 63 63 63 64 65 65
50 50 50 50 50 50 49 49 50 50 51 51 52 53 54 54 55 56 57 58 59 60 59 58 58 58 58 58 57 57 58 58 59 60 62 62 61 61 61 61 62 63 63
51 51 51 50 50 49 49 49 50 50 50 51 51 52 53 54 55 56 57 57 57 57 57 56 56 56 56 55 55 55 56 57 58 59 59 59 59 59 60 60 60 60 60
50 49 49 49 49 49 48 48 49 50 51 51 52 53 54 55 55 56 56 56 55 55 55 55 55 54 53 54 55 55 55 56 56 57 58 58 57 58 58 59 58 58 58
47 46 47 47 47 48 48 48 49 50 51 52 53 53 53 54 54 54 53 53 53 54 53 53 52 53 53 53 53 53 54 55 55 55 56 55 55 56 57 56 56 55 55
46 46 47 47 48 49 49 49 50 50 51 51 51 51 52 52 52 52 52 52 52 52 52 51 52 52 52 52 52 52 53 53 54 54 54 54 54 55 55 54 53 52 52
47 48 48 49 48 49 49 49 50 50 51 50 50 51 51 51 51 51 51 51 51 51 51 51 51 51 51 51 51 52 52 53 52 52 52 53 53 53 53 52 51 50 49
49 49 49 49 49 49 49 50 50 51 50 50 50 50 51 51 51 51 51 51 51 51 52 51 51 52 51 51 51 52 52 52 51 51 51 52 52 51 51 50 49 48 47
50 50 50 51 50 50 50 50 51 50 50 50 51 51 51 51 51 51 52 52 53 53 53 53 53 53 52 52 51 51 51 51 50 50 50 50 50 49 49 48 48 47 46
53 53 53 52 52 51 51 52 52 52 51 51 51 51 52 52 53 54 55 55 55 55 54 54 54 53 52 51 50 50 50 50 49 49 49 49 48 47 47 46 46 45 44
56 55 54 53 53 53 53 54 53 53 52 51 52 52 53 54 55 56 57 56 56 56 55 55 54 53 52 50 48 48 48 48 47 47 47 47 46 45 45 44 44 44 43
57 56 55 54 54 54 55 55 55 54 54 53 54 55 56 56 57 57 58 58 58 57 56 55 54 53 50 48 47 46 46 46 46 46 45 45 44 43 43 43 43 42 41
57 56 56 55 55 55 56 56 56 55 55 56 56 57 57 58 58 58 59 59 58 58 56 55 54 52 49 47 46 45 44 44 44 44 44 43 42 41 41 41 41 41 40
57 56 56 56 56 56 56 56 56 56 57 57 57 57 57 58 58 59 59 59 58 57 55 54 53 51 48 46 44 43 42 42 42 42 42 41 40 40 40 40 40 39 39

GEFSMW_500_meanwind_078.txt.gz
Wind_Speed
27 27 27 29 31 31 32 33 34 35 37 37 37 38 39 40 40 41 42 44 45 47 49 50 51 52 53 54 55 57 57 58 58 58 58 59 59 60 59 59 59 59 60
26 27 28 29 31 32 34 35 36 37 38 39 40 40 41 42 43 44 45 47 49 50 52 53 54 55 56 57 58 59 60 60 61 61 62 62 61 60 59 59 58 59 60
26 27 28 29 31 32 34 35 37 38 39 41 42 42 43 44 45 47 48 50 52 53 54 55 57 58 59 60 60 61 62 63 63 63 63 63 62 61 59 58 58 59 60
27 28 29 30 31 33 34 35 37 39 40 42 43 44 45 46 47 49 51 52 54 55 57 58 59 60 61 62 62 63 64 65 65 64 63 63 63 62 61 59 59 59 60
27 28 29 31 32 33 35 36 38 40 41 43 45 46 47 49 51 52 53 54 56 57 59 60 61 62 63 64 65 65 66 65 65 64 63 62 62 62 62 61 60 60 60
28 29 31 32 33 34 36 38 40 42 44 45 47 48 50 51 53 54 56 57 58 59 60 61 62 63 64 65 66 66 66 65 64 63 63 63 62 62 62 61 61 61 61
31 31 32 33 35 36 38 40 42 44 46 48 49 51 52 54 55 56 58 59 60 61 62 63 63 64 65 66 66 66 66 64 63 63 63 63 62 62 62 62 62 61 61
32 33 34 36 37 39 41 42 44 46 48 49 51 52 54 55 56 58 60 61 63 63 64 64 64 65 65 66 66 66 64 63 63 63 63 63 62 62 62 62 62 62 61
34 35 36 38 40 41 43 44 46 47 49 51 52 54 55 57 58 59 61 61 62 63 64 64 64 64 64 63 63 63 62 62 62 62 63 63 63 63 62 62 63 63 61
37 38 39 40 41 42 43 45 47 48 50 52 53 55 56 58 58 59 60 60 61 62 63 64 63 62 61 60 61 61 61 62 62 63 64 64 63 63 63 63 63 63 62
38 38 39 40 41 42 43 45 46 48 49 51 52 54 55 57 58 58 59 60 60 61 62 62 61 60 59 60 61 61 62 63 63 64 64 63 63 63 62 62 63 62 62
38 38 39 41 42 43 44 45 46 47 49 50 51 53 54 55 56 57 58 58 59 59 59 60 60 60 60 60 61 61 62 63 63 63 63 62 62 61 61 62 62 62 61
40 41 42 43 44 45 46 47 48 49 50 51 52 53 54 55 55 56 57 57 58 58 59 59 60 60 60 61 61 61 62 62 62 61 61 60 60 60 61 61 61 61 60
42 43 44 45 46 47 48 50 51 52 52 53 54 54 55 56 56 56 57 57 58 59 59 60 60 61 62 62 62 63 62 62 61 61 60 60 60 60 60 60 60 60 60
45 46 47 48 49 50 52 53 54 54 55 55 55 56 56 56 57 57 57 57 58 59 59 60 60 61 61 61 62 62 62 61 60 60 59 59 59 59 59 59 59 59 59
48 50 51 52 53 54 55 55 56 56 57 57 57 57 57 57 58 58 57 58 59 59 59 59 59 59 60 61 61 62 61 60 60 59 59 59 59 60 59 59 58 58 59
52 53 55 56 57 58 59 59 59 59 59 59 59 59 59 60 59 59 59 59 59 59 59 59 59 60 60 61 61 62 60 59 59 59 59 59 59 59 59 58 58 59 59
57 58 59 60 61 61 62 62 63 63 62 62 62 61 61 61 61 60 60 60 59 59 59 60 60 60 60 61 61 61 61 60 60 60 59 59 58 58 57 57 57 58 58
62 63 64 65 65 66 66 66 66 65 65 64 63 62 62 62 61 60 60 60 60 59 59 59 60 59 60 61 61 61 61 61 60 59 59 58 57 56 56 56 56 56 56
66 67 68 69 69 70 70 69 67 66 65 64 63 62 62 62 61 61 61 60 60 59 59 59 59 59 59 59 60 61 60 60 59 58 58 57 56 55 56 56 55 55 54
71 72 72 73 72 72 71 70 68 66 65 64 63 62 62 62 61 61 60 60 59 59 59 59 59 58 58 58 59 59 59 59 58 57 56 55 55 55 55 55 54 53 52
75 75 75 74 73 72 71 69 67 66 64 63 62 61 61 61 61 60 59 59 59 58 58 58 57 57 57 57 57 58 58 58 56 55 55 54 53 52 53 52 52 51 49
77 76 76 74 72 70 69 68 65 64 62 61 61 60 60 59 59 59 58 57 57 57 57 57 56 55 55 56 56 56 56 56 55 54 52 51 50 50 50 49 48 47 46
76 75 73 71 68 67 66 65 63 62 61 60 59 58 57 57 56 56 56 56 55 55 56 56 55 54 54 54 54 54 53 52 51 50 49 48 47 46 45 44 44 44 44
73 71 69 67 65 63 62 62 61 60 59 58 57 56 55 54 53 53 53 53 53 54 55 54 53 52 51 51 51 50 48 47 46 45 44 43 42 41 40 40 41 42 41
69 67 65 63 61 60 59 59 58 58 56 55 54 53 52 52 51 50 50 50 51 52 52 51 50 49 48 48 47 45 44 43 42 41 40 39 38 38 38 38 38 38 39

GEFSMW_500_meanwind_084.txt.gz
Wind_Speed
18 19 20 22 23 24 25 26 27 29 31 32 33 34 35 37 38 40 41 43 45 46 48 48 49 51 52 53 54 55 55 56 58 58 58 58 58 58 58 59 59 59 59
18 19 20 21 22 24 25 26 27 29 31 33 34 35 36 37 39 40 42 45 47 48 50 51 52 53 54 55 56 58 59 59 61 62 62 61 60 59 60 60 60 60 61
19 20 20 22 23 24 25 27 28 30 32 34 35 36 37 38 40 42 45 47 48 50 51 53 54 56 57 58 59 60 61 62 63 64 65 65 63 62 60 60 60 61 61
20 21 22 23 25 26 27 29 30 31 33 35 36 38 39 40 42 45 46 48 50 51 53 55 56 58 59 60 61 63 63 65 65 66 66 67 67 66 63 61 60 61 61
22 23 25 26 27 28 29 30 31 33 34 36 38 40 41 43 45 47 48 50 52 54 55 56 58 59 60 61 63 64 66 67 67 67 67 67 67 67 66 63 61 61 60
23 25 26 28 29 30 31 31 33 34 35 37 39 41 42 44 46 47 49 51 53 55 56 58 60 61 62 63 65 66 67 67 67 67 68 68 67 67 66 65 62 61 60
24 25 27 28 29 30 31 32 33 34 35 36 38 40 41 43 45 47 49 51 53 55 57 59 60 61 63 64 65 66 66 67 67 67 67 67 67 67 66 65 63 62 60
24 25 26 28 29 30 31 32 33 34 35 37 38 40 41 43 45 47 49 51 52 54 56 58 60 61 63 64 65 65 65 66 66 66 67 67 66 66 65 63 63 61 61
25 26 27 28 29 31 32 34 35 36 38 39 40 42 43 45 47 49 50 52 54 55 57 59 60 62 63 65 65 65 65 65 66 66 67 67 66 66 64 64 64 64 63
27 29 30 31 32 33 35 36 37 38 40 41 43 45 47 49 50 52 54 55 57 59 60 61 62 63 64 64 65 65 65 66 66 66 67 66 66 66 65 65 65 65 65
30 31 32 33 34 36 38 39 41 43 44 46 48 50 52 53 55 56 58 59 60 61 62 63 64 64 65 65 66 65 66 66 66 66 66 66 66 66 65 66 66 66 66
33 33 35 36 38 40 42 44 46 48 50 52 54 55 57 59 60 61 62 63 64 64 65 65 66 66 66 66 67 67 67 66 66 67 67 66 67 66 66 66 66 66 66
36 37 39 41 44 46 48 49 51 53 55 57 59 61 62 63 64 65 66 66 67 67 67 68 68 68 68 68 68 68 68 68 67 67 67 67 67 66 66 66 65 64 65
40 42 44 46 48 50 53 55 57 59 61 63 64 66 67 68 69 69 70 70 70 69 69 70 69 69 70 70 69 69 69 68 67 66 66 65 65 65 65 65 64 64 64
44 46 48 51 53 55 58 60 62 64 66 68 70 71 72 73 73 73 73 73 72 72 71 71 71 71 70 70 70 70 69 67 66 66 65 64 64 64 64 64 64 64 64
48 51 53 56 58 60 63 65 67 69 71 73 75 76 77 77 76 76 75 74 73 72 71 71 71 70 69 69 69 69 67 66 66 64 64 63 64 63 64 64 64 64 64
52 55 58 61 63 66 69 71 73 75 77 78 79 80 79 78 77 76 74 73 72 71 70 69 68 68 67 67 66 66 65 64 63 62 62 62 62 63 63 63 64 63 62
57 60 63 66 68 71 73 76 78 79 81 81 81 80 78 77 75 73 72 70 69 68 67 65 65 64 64 64 63 63 62 61 60 60 60 61 61 61 61 61 61 60 60
62 65 68 70 73 75 78 80 81 82 82 81 79 77 75 73 71 69 68 66 65 63 63 62 61 60 59 59 59 60 59 58 58 58 58 58 57 57 58 58 57 57 57
66 69 72 75 77 79 81 82 82 82 81 78 76 73 71 69 67 65 63 62 61 60 59 58 57 57 56 56 56 57 56 56 55 55 54 54 54 54 55 55 55 55 55
71 73 76 78 80 82 82 82 81 79 77 74 71 69 66 64 63 61 60 59 57 56 55 53 53 53 53 53 53 54 53 52 51 50 49 50 51 52 53 54 53 52 52
74 77 79 80 80 81 81 79 77 75 73 70 66 64 61 60 59 58 56 55 54 53 52 50 50 50 50 50 50 49 49 49 48 47 48 49 50 50 50 50 50 49 50
77 79 80 80 79 78 77 75 73 71 68 65 62 59 57 56 56 54 53 51 51 50 49 48 47 46 47 47 47 47 47 47 47 47 47 48 48 49 49 49 48 48 48
78 79 79 78 76 74 72 71 69 67 64 61 57 55 54 52 51 50 49 48 48 47 46 46 46 45 45 44 44 45 45 45 46 46 46 46 46 46 46 46 46 45 45
77 77 76 74 72 70 68 66 64 62 59 56 54 51 50 49 48 47 46 46 46 46 46 45 45 44 42 42 43 43 43 43 43 43 42 42 43 43 43 42 42 42 42
76 75 73 70 68 66 64 62 60 58 56 53 50 49 47 46 45 44 43 43 44 44 44 44 44 42 41 41 41 41 40 40 40 40 40 40 39 39 39 39 39 40 40

GEFSMW_500_meanwind_090.txt.gz
Wind_Speed
22 22 23 23 23 24 24 25 25 26 27 28 29 30 32 33 35 36 38 39 41 43 44 44 45 47 48 49 51 52 53 53 55 56 56 56 57 57 57 57 58 58 59
22 23 24 24 24 25 25 26 27 27 28 29 30 31 32 33 35 37 39 40 42 43 44 45 47 48 50 51 52 54 55 56 57 58 59 58 58 58 59 60 60 60 61
23 24 25 25 25 26 27 27 28 29 29 30 31 32 33 35 36 38 40 41 43 44 46 47 49 50 51 52 54 56 57 58 59 60 61 61 60 60 60 61 62 62 63
25 25 26 27 27 27 28 29 29 30 30 31 32 32 34 35 36 38 40 42 43 45 47 48 50 52 53 54 56 58 59 60 61 62 63 64 64 64 62 61 62 63 64
26 26 27 28 28 29 29 29 30 30 31 31 32 33 34 35 37 38 40 42 44 45 47 49 51 52 54 55 57 59 60 62 63 64 65 66 67 67 67 64 63 64 65
27 28 28 29 29 29 29 29 29 30 31 32 33 34 35 36 38 40 41 43 45 47 49 51 52 54 55 57 59 61 62 64 65 66 67 68 69 70 71 70 68 67 67
27 28 29 29 29 29 29 29 30 31 32 33 34 36 37 38 40 42 43 45 47 49 52 54 56 58 59 61 63 64 66 67 68 69 70 71 72 73 74 74 73 71 70
27 28 29 29 29 30 31 32 33 33 34 35 37 38 40 42 43 45 47 49 51 54 56 58 60 62 64 66 67 69 70 71 72 73 74 75 75 76 76 76 76 75 73
27 28 29 31 31 32 33 34 34 35 37 38 40 42 44 46 48 50 52 54 56 59 61 63 65 67 69 70 72 73 74 75 76 77 77 78 78 78 78 79 79 79 77
29 30 32 33 34 35 35 36 37 38 40 42 44 46 48 50 53 55 58 60 63 65 67 69 70 72 74 75 77 78 78 79 79 80 80 80 80 81 81 81 81 81 80
32 34 35 36 37 37 38 39 41 42 44 47 49 51 54 56 59 61 64 66 68 71 73 74 76 78 79 80 81 82 82 82 82 82 83 82 82 83 82 82 82 81 80
35 36 37 38 39 40 41 43 44 47 49 52 54 56 59 61 64 66 69 71 74 76 78 80 82 83 84 85 85 84 84 84 83 83 83 83 83 83 82 82 81 81 80
37 38 39 41 42 43 45 47 49 51 54 56 58 61 64 66 69 72 74 76 79 81 83 85 85 86 86 86 85 84 83 83 82 81 81 80 80 80 79 80 79 78 78
39 41 42 43 45 47 49 51 53 56 58 61 63 66 69 72 74 77 79 81 83 85 86 87 86 85 84 83 82 81 80 79 78 77 76 76 76 76 76 76 75 75 75
42 43 45 46 48 50 53 55 58 61 63 66 68 71 74 77 79 81 83 85 87 87 87 85 83 82 80 79 78 77 75 73 72 71 71 70 70 70 70 70 70 70 70
44 46 48 49 52 54 57 60 62 65 68 70 73 76 78 81 83 85 86 87 87 85 84 81 79 77 75 73 72 71 69 68 66 65 65 64 64 64 64 63 64 65 65
46 48 50 53 55 58 61 63 66 69 72 74 77 80 82 84 86 87 86 85 84 81 79 76 73 71 69 67 66 65 64 62 60 59 59 58 58 58 59 59 59 60 60
49 51 53 56 59 62 64 67 70 73 75 78 80 83 85 86 86 85 83 81 79 76 73 70 67 64 62 61 60 59 57 56 55 55 54 54 54 55 55 55 55 55 56
52 54 57 59 62 65 68 70 73 76 79 81 82 84 85 85 83 81 78 76 73 70 67 64 61 59 57 56 55 54 53 51 50 50 50 50 50 51 51 52 51 50 51
55 57 60 62 65 68 71 73 76 79 81 82 83 83 83 82 79 77 74 71 68 65 61 57 56 55 53 53 52 51 50 48 46 46 46 47 47 47 47 48 48 47 47
57 60 62 65 68 71 73 76 79 81 82 83 82 81 80 77 75 72 69 65 62 59 55 53 52 51 51 50 49 48 47 45 44 43 43 44 44 44 44 44 44 44 44
60 62 65 67 70 74 76 79 81 82 82 81 80 78 75 73 70 67 63 60 57 54 52 50 48 48 48 48 46 45 45 44 43 42 41 40 40 41 41 41 41 42 43
62 65 67 70 73 76 78 80 81 81 80 78 76 74 71 68 64 61 58 55 53 52 50 48 46 45 45 45 44 43 43 43 42 41 39 38 38 38 39 39 40 40 41
65 67 70 72 74 76 78 80 80 80 78 75 72 69 66 62 59 57 55 53 51 50 48 46 45 44 43 42 42 42 41 41 40 39 38 38 38 38 39 39 39 39 39
67 70 72 74 76 77 78 78 78 77 75 71 68 64 61 58 55 53 51 50 49 48 47 46 45 44 42 41 41 40 39 39 38 38 38 38 38 38 38 38 38 38 38
69 72 74 75 76 77 77 76 76 74 71 67 63 60 57 54 52 50 47 46 47 46 46 46 45 44 43 41 40 39 38 37 38 38 38 38 38 38 37 36 36 36 35

GEFSMW_500_meanwind_096.txt.gz
Wind_Speed
19 20 20 20 20 21 21 22 23 24 25 25 26 27 28 29 30 31 32 33 33 34 35 36 37 39 39 41 42 44 45 46 48 49 50 51 51 52 52 54 55 56 57
20 20 21 21 22 22 23 24 24 25 25 26 27 27 28 29 30 31 32 33 34 35 36 37 38 39 40 41 43 45 46 47 49 51 52 52 52 53 54 55 57 58 59
21 21 22 23 24 24 25 25 25 26 26 26 27 28 29 30 31 31 32 33 34 36 37 38 39 41 42 43 45 47 48 50 51 53 55 56 56 56 55 56 58 60 62
22 23 24 24 25 26 26 26 26 26 27 27 28 29 30 30 31 32 33 34 36 37 39 40 42 43 45 46 48 50 52 53 54 56 58 60 62 63 61 60 61 63 65
23 24 25 26 27 27 27 26 26 26 27 27 28 29 30 31 32 33 35 36 38 39 41 43 45 46 48 49 51 53 55 57 59 61 63 65 67 69 70 68 68 68 68
25 26 26 27 28 27 27 27 27 27 27 28 29 31 32 33 34 35 37 38 40 42 44 45 47 49 51 53 56 58 60 62 64 66 69 70 72 73 75 76 75 75 75
26 27 27 28 28 28 28 28 28 29 30 31 32 33 34 35 36 38 39 41 43 45 47 49 51 53 56 58 61 63 65 68 70 72 74 76 77 79 80 82 82 82 81
27 27 28 28 28 29 29 29 30 31 32 34 35 36 37 38 39 40 42 44 46 49 51 53 55 58 60 63 65 68 70 72 74 76 78 80 81 83 85 86 87 88 87
28 28 29 29 30 30 31 31 32 34 35 36 37 38 39 40 42 44 46 48 50 52 55 57 60 62 65 68 70 72 75 77 79 80 82 84 85 86 88 89 90 91 91
29 30 30 31 32 32 33 34 35 36 37 38 39 41 42 44 46 48 50 53 55 57 59 62 65 67 70 73 75 77 79 81 83 84 85 86 87 88 88 89 90 91 92
31 32 33 33 34 35 36 37 38 39 40 41 42 44 46 48 50 52 54 57 59 62 64 67 70 72 75 77 79 81 83 84 85 86 86 86 86 86 86 86 87 87 88
34 34 35 36 37 38 38 39 40 41 42 44 46 47 49 51 54 56 59 61 64 66 69 72 74 76 79 81 82 84 85 85 85 84 84 83 82 81 80 80 79 79 79
36 37 38 39 39 40 41 42 43 44 46 47 49 51 53 55 57 60 63 65 68 71 73 76 78 80 82 83 84 85 85 84 82 81 79 77 75 74 73 72 72 71 71
38 39 40 40 41 42 43 44 46 47 49 51 52 54 56 59 61 64 67 69 72 75 77 79 81 82 84 84 84 83 82 80 77 75 72 70 68 66 65 64 64 63 63
39 40 41 42 43 44 45 46 48 50 52 53 55 57 60 62 65 68 70 73 75 78 80 81 83 83 84 83 82 80 77 74 71 67 65 62 61 60 59 58 57 58 58
41 42 42 43 44 45 47 48 50 52 54 56 58 61 63 66 68 71 73 76 78 80 81 82 83 82 81 79 76 74 71 67 63 60 57 56 56 55 55 54 54 54 54
42 43 44 45 46 47 49 50 52 54 57 59 61 64 66 69 71 74 76 78 80 81 82 81 80 78 75 73 70 68 65 61 57 55 53 52 52 52 51 51 51 50 50
43 44 45 46 47 49 51 52 55 57 59 61 64 67 69 71 74 76 78 80 81 81 80 79 76 73 70 67 65 62 58 55 52 52 51 50 49 49 48 48 47 47 47
44 45 46 47 49 51 52 54 57 59 62 64 66 69 72 74 76 78 79 80 80 79 77 75 72 68 65 62 59 56 53 51 50 49 48 47 47 46 47 46 45 44 43
45 46 47 49 50 52 54 56 59 61 64 66 69 71 74 76 78 79 80 80 79 76 74 70 67 64 61 58 55 53 51 49 48 46 46 45 45 45 45 45 44 43 43
46 47 48 50 52 54 56 58 61 64 66 68 70 73 75 77 78 79 79 78 76 73 70 67 63 60 57 54 51 50 49 48 46 44 43 43 43 43 43 43 43 42 42
47 48 49 51 54 56 58 61 63 66 68 70 72 74 76 78 79 78 77 75 73 69 66 62 59 56 53 50 48 47 47 46 44 43 43 42 42 42 42 41 41 41 41
48 49 51 53 56 58 61 63 65 68 69 71 74 75 77 77 78 76 74 72 69 65 62 59 55 51 49 48 46 45 45 45 44 43 42 42 41 41 41 41 40 40 40
50 51 53 55 57 60 63 65 68 69 71 73 75 76 77 77 75 74 71 68 65 61 58 55 52 48 46 45 44 43 43 43 43 43 42 41 40 40 40 39 39 39 39
51 53 55 57 60 62 64 67 69 71 73 75 76 77 76 76 73 70 67 64 60 58 55 52 50 47 45 43 42 41 41 41 41 40 39 39 39 38 38 38 38 37 37
53 55 57 60 62 64 67 69 71 73 75 75 76 76 75 73 71 67 63 59 57 54 52 51 49 47 44 42 41 40 40 40 39 38 37 37 36 36 36 35 35 34 34

GEFSMW_500_meanwind_102.txt.gz
Wind_Speed
19 19 19 20 20 21 21 22 22 23 23 24 25 26 26 26 27 28 28 28 29 30 30 31 32 33 33 34 35 37 38 39 40 41 42 42 43 44 45 47 48 49 50
19 19 20 20 21 21 22 23 23 24 25 25 26 26 27 27 28 28 28 29 30 31 32 32 33 34 35 36 38 39 40 40 42 43 44 43 43 46 47 48 49 50 52
20 20 20 21 22 22 23 24 24 25 26 26 26 27 27 28 28 29 30 30 31 32 33 34 35 36 37 38 39 40 42 42 44 46 48 48 48 47 48 50 52 54 55
20 21 21 22 23 24 24 25 26 26 26 27 27 28 28 28 29 30 31 32 33 34 35 36 37 38 39 40 41 43 44 45 46 48 50 52 53 54 53 53 55 58 60
21 22 23 24 24 25 25 26 27 27 27 28 28 29 30 31 31 32 33 34 35 36 38 39 40 41 42 43 45 46 47 49 51 52 54 56 58 60 62 61 60 62 64
22 23 24 25 26 26 27 28 28 28 29 30 30 31 32 33 34 35 36 37 38 39 40 41 42 44 45 46 48 50 51 53 55 57 58 60 62 64 67 69 69 69 69
24 24 25 26 27 28 29 29 29 30 31 32 33 33 34 35 36 37 38 39 40 41 42 43 45 47 48 50 51 53 55 57 59 61 63 65 67 70 72 74 75 76 75
25 26 27 28 29 29 30 30 31 32 33 34 35 36 37 38 39 40 40 41 42 43 45 46 48 49 51 52 54 56 58 60 63 65 67 69 71 73 76 78 80 81 80
26 27 28 29 30 31 32 32 33 35 36 36 37 38 39 40 41 42 43 44 45 46 47 49 50 52 54 56 58 60 62 64 66 69 70 72 74 76 78 80 82 84 84
27 29 30 31 32 33 34 35 36 37 37 38 39 40 41 42 43 44 45 46 48 49 50 52 53 55 57 59 61 63 66 68 69 71 73 74 76 78 79 81 82 83 85
29 31 32 33 34 36 37 38 39 39 40 41 42 43 44 45 45 46 48 49 51 52 53 55 56 58 60 62 64 66 68 70 72 73 75 76 78 79 80 81 81 80 81
32 33 34 36 37 38 39 40 41 41 42 43 44 45 46 46 47 48 50 51 53 54 56 57 59 61 63 65 67 69 71 73 74 75 77 78 79 79 79 78 77 76 75
34 35 37 38 39 40 41 42 43 44 44 45 45 46 47 48 49 51 52 54 55 57 58 60 62 64 66 68 70 72 73 74 76 77 78 78 78 77 76 74 73 71 70
36 38 39 40 41 42 43 44 44 45 46 46 47 48 49 51 52 53 55 56 58 59 61 63 65 67 69 71 72 74 75 76 77 78 78 77 75 74 72 70 67 66 64
38 39 41 42 43 43 44 45 46 46 47 48 50 51 52 53 54 55 57 58 60 61 63 65 67 69 71 73 74 76 77 77 77 76 75 73 71 69 67 65 62 61 60
40 41 42 43 43 44 45 46 47 48 50 51 52 53 54 55 56 58 59 60 62 63 65 67 69 71 73 75 76 78 78 77 76 74 71 68 66 64 62 60 58 57 56
41 42 43 44 45 46 47 48 49 50 51 52 53 54 55 56 58 60 61 62 63 65 67 69 71 73 74 76 77 78 78 76 73 71 68 65 62 60 58 56 54 53 52
43 43 44 45 46 47 48 49 50 51 52 53 54 55 57 58 59 61 62 64 66 67 69 71 73 74 76 77 77 77 76 73 70 67 65 62 59 57 54 52 50 48 48
44 45 45 46 47 48 49 50 51 52 53 54 55 57 58 59 61 62 64 66 68 69 71 73 75 76 76 76 76 75 73 69 66 64 61 58 56 53 51 49 47 46 46
44 45 46 47 48 49 50 51 52 53 54 55 56 58 59 61 62 64 66 68 70 71 73 75 76 77 76 75 74 73 71 67 64 60 57 55 52 50 48 47 46 45 45
45 46 47 48 48 49 50 51 52 54 55 56 57 59 61 63 64 66 68 70 72 73 75 76 76 75 74 72 71 69 67 64 61 57 54 51 49 47 46 46 46 45 44
46 47 48 48 49 50 51 52 53 55 56 57 59 60 62 64 66 68 70 72 74 75 76 75 74 73 71 70 68 66 64 61 58 54 50 47 46 45 44 44 44 44 43
47 48 48 49 50 51 52 53 54 56 57 59 61 63 64 66 68 70 72 74 75 76 75 75 73 71 69 67 65 62 60 57 54 51 47 45 44 42 42 42 41 41 40
47 48 49 49 50 51 53 54 56 58 59 61 63 64 66 68 70 72 74 75 75 75 74 73 72 69 66 64 61 58 55 52 49 47 44 43 42 41 40 39 39 39 38
48 49 49 50 51 52 54 56 58 60 61 63 64 66 68 70 72 73 74 74 74 74 73 72 70 68 64 61 58 55 51 48 46 43 41 39 39 38 37 37 37 37 37
48 49 50 51 53 54 56 58 60 62 63 65 67 69 71 72 73 74 74 73 73 72 70 69 67 65 62 58 54 51 48 45 43 42 39 38 37 36 36 36 35 36 36